Weather History for KM30 - May, 2014

Change the Weather History Date:

Friday, May 16, 2014

  Actual Average (KPAH) Record (KPAH)
Temperature  
Mean Temperature 53 °F 67 °F  
Max Temperature 62 °F 78 °F 91 °F (2001)
Min Temperature 45 °F 56 °F 36 °F (1997)
Degree Days  
Heating Degree Days 12 2  
Month to date heating degree days 46  
Since 1 July heating degree days 4110  
Cooling Degree Days 0 4  
Month to date cooling degree days 46  
Year to date cooling degree days 88  
Growing Degree Days 3 (Base 50)    
Moisture  
Dew Point 38 °F    
Average Humidity 63    
Maximum Humidity 99    
Minimum Humidity 29    
Precipitation  
Precipitation 0.00 in 0.16 in 3.50 in (1948)
Month to date precipitation 2.77  
Year to date precipitation 19.05  
Snow  
Snow 0.00 in 0.00 in 0.00 in (2002)
Month to date snowfall 0.0  
Since 1 July snowfall 9.1  
Snow Depth -    
Sea Level Pressure  
Sea Level Pressure 30.07 in    
Wind  
Wind Speed 4 mph (WNW)    
Max Wind Speed 14 mph    
Max Gust Speed 23 mph    
Visibility 9 miles    
Events      
T = Trace of Precipitation, MM = Missing Value Source: NWS Daily Summary

Daily Weather History Graph

Daily Weather History Graph

Search for Another Location

Airport or City:

Trip Planner

Search our weather history database for the weather conditions in past years. The results will help you decide how hot, cold, wet, or windy it might be!

Date:

Astronomy

May. 16, 2014 Rise Set
Actual Time 5:45 AM CDT 7:57 PM CDT
Civil Twilight 5:16 AM CDT 8:26 PM CDT
Nautical Twilight 4:40 AM CDT 9:02 PM CDT
Astronomical Twilight 4:02 AM CDT 9:41 PM CDT
Moon 10:04 PM CDT (5/16) 7:27 AM CDT (5/16)
Length of Visible Light 15h 10m
Length of Day
14h 11m
Waning Gibbous, 95% of the Moon is Illuminated
May 16
Waning Gibbous
May 21
Last Quarter
May 28
New
Jun 5
First Quarter
Jun 12
Full

Hourly Weather History & Observations

Time (CDT) Temp. Windchill Dew Point Humidity Pressure Visibility Wind Dir Wind Speed Gust Speed Precip Events Conditions
12:15 AM 50.9 °F - 49.6 °F 95% 30.09 in 10.0 mi NNW 3.5 mph - N/A   Mostly Cloudy
12:35 AM 50.5 °F - 49.3 °F 95% 30.08 in 10.0 mi Calm Calm - N/A   Mostly Cloudy
1:15 AM 48.4 °F - 47.7 °F 97% 30.07 in 2.5 mi Calm Calm - N/A   Clear
1:35 AM 48.7 °F - 48.0 °F 97% 30.06 in 4.0 mi Calm Calm - N/A   Scattered Clouds
1:55 AM 49.5 °F - 49.1 °F 99% 30.06 in 7.0 mi SW 3.5 mph - N/A   Mostly Cloudy
2:15 AM 49.5 °F - 48.7 °F 97% 30.05 in 7.0 mi SW 3.5 mph - N/A   Mostly Cloudy
2:35 AM 49.3 °F - 48.4 °F 97% 30.04 in 4.0 mi SSW 3.5 mph - N/A   Mostly Cloudy
2:55 AM 49.1 °F - 48.4 °F 97% 30.04 in 4.0 mi SW 3.5 mph - N/A   Mostly Cloudy
3:15 AM 48.9 °F - 48.2 °F 97% 30.04 in 5.0 mi WSW 3.5 mph - N/A   Scattered Clouds
3:35 AM 48.6 °F - 47.8 °F 97% 30.04 in 4.0 mi Calm Calm - N/A   Clear
3:55 AM 48.6 °F - 47.8 °F 97% 30.04 in 4.0 mi Calm Calm - N/A   Clear
4:15 AM 48.4 °F - 47.7 °F 97% 30.04 in 4.0 mi West 3.5 mph - N/A   Clear
4:35 AM 48.2 °F - 47.5 °F 97% 30.04 in 4.0 mi WSW 3.5 mph - N/A   Clear
4:55 AM 47.8 °F - 46.9 °F 97% 30.04 in 7.0 mi WSW 4.6 mph - N/A   Clear
5:15 AM 47.8 °F - 46.6 °F 95% 30.05 in 10.0 mi West 4.6 mph - N/A   Clear
5:35 AM 47.1 °F - 45.9 °F 95% 30.06 in 5.0 mi Calm Calm - N/A   Clear
5:55 AM 45.9 °F 44.6 °F 44.8 °F 96% 30.06 in 10.0 mi West 3.5 mph - N/A   Clear
6:15 AM 45.5 °F 44.2 °F 43.0 °F 91% 30.06 in 10.0 mi West 3.5 mph - N/A   Clear
6:35 AM 45.9 °F 44.6 °F 42.1 °F 87% 30.07 in 10.0 mi WNW 3.5 mph - N/A   Clear
6:55 AM 46.8 °F - 43.7 °F 89% 30.07 in 10.0 mi Calm Calm - N/A   Clear
7:15 AM 48.2 °F - 43.0 °F 82% 30.07 in 10.0 mi Calm Calm - N/A   Clear
7:35 AM 49.1 °F - 40.6 °F 73% 30.08 in 10.0 mi WNW 9.2 mph - N/A   Clear
7:55 AM 49.1 °F - 39.6 °F 70% 30.08 in 10.0 mi WNW 4.6 mph - N/A   Clear
8:15 AM 49.5 °F - 39.7 °F 69% 30.08 in 10.0 mi WNW 5.8 mph - N/A   Clear
8:35 AM 50.2 °F - 40.1 °F 68% 30.08 in 10.0 mi WNW 4.6 mph - N/A   Clear
8:55 AM 51.4 °F - 38.3 °F 61% 30.09 in 10.0 mi WNW 8.1 mph - N/A   Scattered Clouds
9:15 AM 52.2 °F - 36.9 °F 56% 30.09 in 10.0 mi WNW 13.8 mph - N/A   Scattered Clouds
9:35 AM 52.9 °F - 36.5 °F 54% 30.09 in 10.0 mi WNW 8.1 mph 17.3 mph N/A   Mostly Cloudy
9:55 AM 53.6 °F - 36.1 °F 52% 30.09 in 10.0 mi WNW 9.2 mph - N/A   Mostly Cloudy
10:15 AM 53.8 °F - 34.7 °F 48% 30.10 in 10.0 mi West 11.5 mph - N/A   Mostly Cloudy
10:35 AM 55.4 °F - 35.4 °F 47% 30.10 in 10.0 mi WNW 10.4 mph - N/A   Mostly Cloudy
10:55 AM 55.2 °F - 34.3 °F 45% 30.09 in 10.0 mi West 9.2 mph 18.4 mph N/A   Mostly Cloudy
11:15 AM 55.8 °F - 32.5 °F 41% 30.09 in 10.0 mi West 13.8 mph 23.0 mph N/A   Scattered Clouds
11:35 AM 56.7 °F - 33.1 °F 41% 30.08 in 10.0 mi West 12.7 mph 19.6 mph N/A   Clear
11:55 AM 57.0 °F - 33.4 °F 41% 30.08 in 10.0 mi West 9.2 mph 18.4 mph N/A   Clear
12:15 PM 57.4 °F - 33.4 °F 40% 30.09 in 10.0 mi WNW 10.4 mph - N/A   Scattered Clouds
12:35 PM 57.7 °F - 32.5 °F 39% 30.08 in 10.0 mi WSW 11.5 mph 18.4 mph N/A   Mostly Cloudy
12:55 PM 58.1 °F - 31.5 °F 36% 30.08 in 10.0 mi NW 12.7 mph 21.9 mph N/A   Mostly Cloudy
1:15 PM 57.7 °F - 29.1 °F 34% 30.08 in 10.0 mi West 13.8 mph 20.7 mph N/A   Scattered Clouds
1:35 PM 59.4 °F - 30.0 °F 33% 30.07 in 10.0 mi West 12.7 mph 19.6 mph N/A   Scattered Clouds
1:55 PM 59.2 °F - 28.6 °F 31% 30.07 in 10.0 mi WNW 12.7 mph 19.6 mph N/A   Scattered Clouds
2:15 PM 59.0 °F - 29.1 °F 32% 30.07 in 10.0 mi WSW 11.5 mph 17.3 mph N/A   Scattered Clouds
2:35 PM 59.0 °F - 29.8 °F 33% 30.07 in 10.0 mi NW 8.1 mph 17.3 mph N/A   Mostly Cloudy
3:15 PM 60.1 °F - 28.9 °F 31% 30.07 in 10.0 mi WNW 10.4 mph 17.3 mph N/A   Scattered Clouds
3:35 PM 60.1 °F - 30.0 °F 32% 30.06 in 10.0 mi NW 5.8 mph - N/A   Mostly Cloudy
3:55 PM 59.0 °F - 28.4 °F 31% 30.06 in 10.0 mi NW 8.1 mph - N/A   Mostly Cloudy
4:15 PM 61.2 °F - 30.0 °F 31% 30.06 in 10.0 mi WSW 5.8 mph - N/A   Scattered Clouds
4:35 PM 60.6 °F - 29.1 °F 30% 30.06 in 10.0 mi NW 8.1 mph - N/A   Scattered Clouds
4:55 PM 61.0 °F - 29.8 °F 31% 30.07 in 10.0 mi West 8.1 mph - N/A   Scattered Clouds
5:15 PM 61.0 °F - 28.2 °F 29% 30.06 in 10.0 mi WNW 9.2 mph - N/A   Scattered Clouds
5:35 PM 61.2 °F - 28.9 °F 30% 30.06 in 10.0 mi NW 5.8 mph - N/A   Clear
5:55 PM 60.8 °F - 28.9 °F 30% 30.06 in 10.0 mi WNW 9.2 mph - N/A   Scattered Clouds
6:15 PM 60.4 °F - 30.2 °F 32% 30.06 in 10.0 mi North 6.9 mph - N/A   Clear
6:35 PM 59.9 °F - 30.0 °F 32% 30.06 in 10.0 mi NNW 4.6 mph - N/A   Clear
6:55 PM 59.2 °F - 30.0 °F 33% 30.07 in 10.0 mi NNW 4.6 mph - N/A   Clear
7:15 PM 59.0 °F - 29.8 °F 33% 30.07 in 10.0 mi Calm Calm - N/A   Clear
7:35 PM 57.7 °F - 33.3 °F 40% 30.08 in 10.0 mi Calm Calm - N/A   Clear
7:55 PM 54.7 °F - 36.9 °F 51% 30.08 in 10.0 mi Calm Calm - N/A   Clear
8:15 PM 52.7 °F - 40.1 °F 62% 30.08 in 10.0 mi Calm Calm - N/A   Clear
8:35 PM 51.4 °F - 40.5 °F 66% 30.08 in 10.0 mi Calm Calm - N/A   Clear
8:55 PM 51.1 °F - 40.1 °F 66% 30.09 in 7.0 mi Calm Calm - N/A   Clear
9:15 PM 50.9 °F - 41.5 °F 70% 30.09 in 10.0 mi North 3.5 mph - N/A   Clear
9:35 PM 50.2 °F - 41.9 °F 73% 30.10 in 10.0 mi Calm Calm - N/A   Clear
9:55 PM 48.9 °F - 40.6 °F 73% 30.10 in 10.0 mi Calm Calm - N/A   Clear
10:15 PM 50.0 °F - 40.5 °F 70% 30.11 in 10.0 mi Calm Calm - N/A   Clear
10:35 PM 50.0 °F - 41.4 °F 72% 30.11 in 10.0 mi Calm Calm - N/A   Clear
10:55 PM 48.9 °F - 39.9 °F 71% 30.11 in 10.0 mi Calm Calm - N/A   Clear
11:15 PM 48.4 °F - 42.1 °F 79% 30.11 in 10.0 mi Calm Calm - N/A   Mostly Cloudy
11:35 PM 49.1 °F - 40.1 °F 71% 30.11 in 10.0 mi Calm Calm - N/A   Overcast
11:55 PM 49.5 °F - 40.6 °F 72% 30.13 in 10.0 mi North 3.5 mph - N/A   Overcast